Regional Weather Roundup
Issued by NWS Grand Forks, ND

Home | Current Version | Previous Version | Graphics & Text | Print | Product List | Glossary On
Versions: 1 2 3 4 5 6 7 8 9 10 11 12 13 14 15 16 17 18 19 20 21 22 23 24 25 26 27 28 29 30 31 32 33 34 35 36 37 38 39 40 41 42 43 44 45 46 47 48 49 50
000
ASUS43 KFGF 301831
RWRFGF
PRAIRIE TO PINES  WEATHER ROUNDUP
NATIONAL WEATHER SERVICE EASTERN NORTH DAKOTA/GRAND FORKS ND
100 PM CDT SAT JUL 30 2016

 **SATELLITE DATA USED TO AUGMENT SKY COVER AT AUTOMATED STATIONS**
 *****  WEATHER ACROSS EASTERN NORTH DAKOTA  *****

CITY           SKY/WX    TMP DP  RH WIND       PRES   REMARKS
GRAND FORKS    MOSUNNY   80  63  55 S16G22    29.93S
6HR MIN TEMP:  66; 6HR MAX TEMP:  80;

GRAND FRKS AFB SUNNY     79  63  57 S16       29.93S
DEVILS LAKE    CLOUDY    76  66  71 SE16      29.92F
6HR MIN TEMP:  64; 6HR MAX TEMP:  77;

FARGO          PTSUNNY   79  61  53 S14       29.96F
WAHPETON ARPT  CLEAR     79  54  41 SE12      29.99S
$$

 ***** WEATHER ACROSS CENTRAL AND WESTERN NORTH DAKOTA  *****

CITY           SKY/WX    TMP DP  RH WIND       PRES   REMARKS
BISMARCK       MOSUNNY   78  65  63 S14       29.89S
6HR MIN TEMP:  64; 6HR MAX TEMP:  78; 6HR PCP:  0.03;

MINOT          MOSUNNY   85  60  42 SE9       29.86F
6HR MIN TEMP:  64; 6HR MAX TEMP:  86;

JAMESTOWN      CLOUDY    76  63  64 S14       29.93F
6HR MIN TEMP:  61; 6HR MAX TEMP:  76;

MINOT AFB      MOSUNNY   80  60  50 VRB5      29.85F
GARRISON         N/A     78  65  63 S5        29.88S
WILLISTON      SUNNY     83  55  38 S10       29.85F
6HR MIN TEMP:  54; 6HR MAX TEMP:  83;

DICKINSON      SUNNY     80  52  37 VRB3      29.87F
6HR MIN TEMP:  52; 6HR MAX TEMP:  80;

HETTINGER      MOSUNNY   86  54  33 VRB5      29.90F
6HR MIN TEMP:  50; 6HR MAX TEMP:  86;

$$

 *****  OTHER AIRPORT OBSERVATIONS IN OUR AREA  *****

CITY           SKY/WX    TMP DP  RH WIND       PRES   REMARKS
WALHALLA       FAIR      77  73  88 S7        29.90F
GRAFTON AIRPOR FAIR      81  66  61 S13G20    29.92F
VALLEY CITY AR MOCLDY    75  63  64 S9        29.97F
CANDO          FAIR      79  64  61 S10       29.92F
CAVALIER APRT  FAIR      77  66  69 S10G16    29.90F
GWINNER        FAIR      81  63  54 S13G18    29.97F
SHEYENNE NWR     N/A     82  59  44 S12       29.95S
ROLLA            N/A     75  64  69 S3        29.91F
 ***** THE ABOVE OBSERVATIONS ARE NON NWS ARE NOT QUALITY
       CONTROLLED AND MAY MIS-REPORT RAIN FOR SNOW...
$$

  *****  WEATHER ACROSS NORTHERN MINNESOTA  *****

CITY           SKY/WX    TMP DP  RH WIND       PRES   REMARKS
FLAG ISLAND    MOSUNNY   75  64  69 S8        29.95F
WARROAD        MOSUNNY   75  66  73 S6        29.97S
ROSEAU         CLOUDY    75  66  73 S8        29.96F
HALLOCK        MOSUNNY   79  64  61 S15       29.91F
THF RVR FALLS  CLOUDY    75  62  64 S15       29.99F
6HR MIN TEMP:  62; 6HR MAX TEMP:  75; 6HR PCP: TRACE;

BAUDETTE       LGT RAIN  73  62  68 SW13      29.99S
6HR MIN TEMP:  58; 6HR MAX TEMP:  78; 6HR PCP:  0.02;

WASKISH        CLOUDY    72  61  68 SW7       30.02F
CROOKSTON      SUNNY     79  63  57 S17       29.96F
STEPHEN NDAWN    N/A     79  64  61 S12         N/A
GREENBUSH NDAW   N/A     79  61  53 S12         N/A
$$
  *****  WEATHER ACROSS CENTRAL AND WEST MINNESOTA  *****

CITY           SKY/WX    TMP DP  RH WIND       PRES   REMARKS
FOSSTON        MOSUNNY   73  64  73 SE8       30.01F
BEMIDJI        CLOUDY    68  61  77 SW7       30.04F
PARK RAPIDS    PTSUNNY   78  56  46 S9        30.03F
6HR MIN TEMP:  60; 6HR MAX TEMP:  78;

ELBOW LAKE     FAIR      76  61  60 SE12      30.02F
WADENA         SUNNY     75  57  53 SE5       30.03F
DETROIT LAKES  MOSUNNY   77  59  53 S10       30.03S
MOORHEAD       MOSUNNY   79  61  53 S14       29.98F
FERGUS FALLS   MOSUNNY   75  61  60 SE12      30.01F
MORRIS MN      SUNNY     79  57  47 S9        30.01S
STAPLES        MOSUNNY   75  54  46 S5        30.04F
$$
  *****  WEATHER ELSEWHERE ACROSS MINNESOTA  *****

CITY           SKY/WX    TMP DP  RH WIND       PRES   REMARKS
DULUTH         MOSUNNY   73  60  63 E6        30.06F
6HR MIN TEMP:  57; 6HR MAX TEMP:  73;

INTRNTL FALLS  MOSUNNY   77  59  53 SE8       30.01F
6HR MIN TEMP:  56; 6HR MAX TEMP:  78;

ELY            MOSUNNY   75  52  43 SW3       30.05F
CLOQUET        PTSUNNY   75  59  57 SW7       30.06S
WHEATON        SUNNY     79  63  57 SE7       30.00F
BRAINERD       SUNNY     77  56  48 SE9       30.04F
6HR MIN TEMP:  58; 6HR MAX TEMP:  77;

HIBBING        SUNNY     74  51  44 CALM      30.05F
6HR MIN TEMP:  46; 6HR MAX TEMP:  74;

ALEXANDRIA     SUNNY     76  56  49 VRB7      30.05F
6HR MIN TEMP:  60; 6HR MAX TEMP:  76;

SAINT CLOUD    PTSUNNY   75  62  64 S5        30.03S
6HR MIN TEMP:  56; 6HR MAX TEMP:  77;

MINNEAPOLIS    MOSUNNY   78  63  59 SE5       30.03F
6HR MIN TEMP:  67; 6HR MAX TEMP:  79;

$$

  *****  WEATHER ACROSS SOUTH DAKOTA  *****

CITY           SKY/WX    TMP DP  RH WIND       PRES   REMARKS
SIOUX FALLS    MOSUNNY   78  59  51 CALM      30.01F
6HR MIN TEMP:  56; 6HR MAX TEMP:  78;

BROOKINGS      MOSUNNY   76  60  57 SE10      30.01F
WATERTOWN      SUNNY     78  59  51 SE10      30.00F
6HR MIN TEMP:  60; 6HR MAX TEMP:  79;

HURON          SUNNY     81  58  45 S10G21    29.95F
6HR MIN TEMP:  60; 6HR MAX TEMP:  81;

SISSETON         N/A     79  58  48 S13       29.97F
ABERDEEN       MOSUNNY   81  58  45 S16G23    29.95F
6HR MIN TEMP:  59; 6HR MAX TEMP:  81;

MITCHELL       MOSUNNY   82  62  50 SE12G22   29.97F
PIERRE         SUNNY     86  62  44 SE18      29.88F
6HR MIN TEMP:  63; 6HR MAX TEMP:  86;

MOBRIDGE       SUNNY     87  60  40 S17       29.87F
RAPID CITY     SUNNY     85  59  41 SE14      29.91F
6HR MIN TEMP:  54; 6HR MAX TEMP:  85;

$$

  *****  SOME WEATHER IN NEARBY STATES *****

CITY           SKY/WX    TMP DP  RH WIND       PRES   REMARKS
GLASGOW MT     SUNNY     83  57  41 SE14      29.80F
6HR MIN TEMP:  59; 6HR MAX TEMP:  83;

GREAT FALLS MT SUNNY     90  43  19 NW14      29.80F
6HR MIN TEMP:  54; 6HR MAX TEMP:  90;

CHEYENNE WY    SUNNY     77  59  53 SE7       30.11F
6HR MIN TEMP:  60; 6HR MAX TEMP:  78;

SCOTTSBLUFF NE SUNNY     80  65  59 E10       29.99F
6HR MIN TEMP:  59; 6HR MAX TEMP:  81; 6HR PCP: TRACE;

OMAHA NE       PTSUNNY   75  64  68 SE7       30.03S
6HR MIN TEMP:  61; 6HR MAX TEMP:  75;

DES MOINES IA  PTSUNNY   78  64  61 CALM      30.02F
6HR MIN TEMP:  67; 6HR MAX TEMP:  80;

DAVENPORT IA   PTSUNNY   78  67  68 N5        30.00F
6HR MIN TEMP:  67; 6HR MAX TEMP:  78;

CHICAGO IL     CLOUDY    73  65  75 NE9       29.99F
6HR MIN TEMP:  70; 6HR MAX TEMP:  74;

EAU CLAIRE WI  MOSUNNY   77  58  51 SE3       30.04S
6HR MIN TEMP:  62; 6HR MAX TEMP:  80;

LA CROSSE WI   CLOUDY    80  63  55 VRB3      30.03S
6HR MIN TEMP:  67; 6HR MAX TEMP:  81;

$$

  *****  SOME NATIONAL WEATHER *****

CITY           SKY/WX    TMP DP  RH WIND       PRES   REMARKS
LA GUARDIA NY  PTSUNNY   79  70  74 NE10      30.00F
6HR MIN TEMP:  76; 6HR MAX TEMP:  81;

RALEIGH NC     PTSUNNY   93  73  52 SW15      29.96F HX 102
6HR MIN TEMP:  78; 6HR MAX TEMP:  93;

ATLANTA GA     PTSUNNY   78  74  87 CALM      30.05F
6HR MIN TEMP:  73; 6HR MAX TEMP:  89; 6HR PCP:  0.35;

NEW ORLEANS LA MOSUNNY   93  75  55 VRB6      30.04F HX 104
6HR MIN TEMP:  81; 6HR MAX TEMP:  94;

OKLAHOMA CITY  CLOUDY    85  72  65 E6        29.98S HX  91
6HR MIN TEMP:  73; 6HR MAX TEMP:  85;

ALBUQUERQUE NM MOSUNNY   82  54  37 SW10      30.17F
6HR MIN TEMP:  65; 6HR MAX TEMP:  82;

SALT LAKE CITY PTSUNNY   96  44  16 S18G26    29.95F HX  92
6HR MIN TEMP:  76; 6HR MAX TEMP:  96;

LOS ANGELES CA PTSUNNY   77  67  71 SW10      29.89R
6HR MIN TEMP:  69; 6HR MAX TEMP:  79;

BOISE ID       SUNNY    C1F1C2F2C3F3C4F4C5F5C6F6C7F7C8F8C9F9CaFaCbFbCcFcCd!


USA.gov is the U.S. government's official web portal to all federal, state and local government web resources and services.